Miscellaneous Local Product
Issued by NWS Hastings, NE

Home | Current Version | Previous Version | Text Only | Print | Product List | Glossary On
Versions: 1 2 3 4 5 6 7 8 9 10 11 12 13 14 15 16 17 18 19 20 21 22 23 24 25 26 27 28 29 30 31 32 33 34 35 36 37 38 39 40 41 42 43 44 45 46 47 48 49 50
000
AXUS43 KGID 241202
MISGRI

GID CWA HOURLY WEATHER ROUNDUP
NATIONAL WEATHER SERVICE HASTINGS NE
600 AM CST FRI FEB 24 2017

NOTE: "FAIR" INDICATES FEW OR NO CLOUDS BELOW 12,000 FEET WITH NO
SIGNIFICANT WEATHER AND/OR OBSTRUCTIONS TO VISIBILITY.

...SOUTH CENTRAL NEBRASKA...

CITY           SKY/WX    TMP DP  RH WIND       PRES   REMARKS
GRAND ISLAND   LGT SNOW  24  22  91 N22G37    29.77R VSB 1   WCI   9
HASTINGS       LGT SNOW  26  23  88 N24       29.76R FOG     WCI  11
KEARNEY        CLOUDY    25  19  80 N21G28    29.78R WCI  10
ORD            FOG       22  18  85 N26       29.84R VSB 1   WCI   5
YORK           LGT SNOW  27  25  93 N22G36    29.73R WCI  12
AURORA         LGT SNOW  25  24  93 N17G24    29.76R WCI  12
LEXINGTON      LGT SNOW  24  21  87 N25G31    29.81R WCI   8
HOLDREGE       LGT SNOW  25  22  90 N14G21    29.79R WCI  13
HEBRON         MIX PCPN  30  28  92 N10G22    29.71S WCI  21

...NEBRASKA PANHANDLE...

CITY           SKY/WX    TMP DP  RH WIND       PRES   REMARKS
CHADRON        LGT SNOW  22  19  89 N3        29.98R FOG
ALLIANCE       CLOUDY    19  16  88 N15       29.90S FOG     WCI   5
SCOTTSBLUFF    CLOUDY    20  15  81 N8        29.93R WCI  10
SIDNEY         LGT SNOW  19  16  88 N15       29.88S FOG     WCI   5

...WESTERN AND NORTH CENTRAL NEBRASKA...

CITY           SKY/WX    TMP DP  RH WIND       PRES   REMARKS
VALENTINE      LGT SNOW  21  17  84 NE12      29.97R FOG     WCI   9
AINSWORTH      LGT SNOW  20  19  96 N24G30    29.93R WCI   3
ONEILL         CLOUDY    21  18  91 N24G33    29.90R WCI   4
BROKEN BOW     FOG       23  20  88 N30G38    29.84R VSB 1   WCI   5
IMPERIAL       LGT SNOW  22  18  85 N21       29.88R FOG     WCI   6
NORTH PLATTE   CLOUDY    24  19  81 N16       29.87R HAZE    WCI  11
MCCOOK         LGT SNOW  24  22  91 N21       29.84R FOG     WCI   9

...EASTERN NEBRASKA...

CITY           SKY/WX    TMP DP  RH WIND       PRES   REMARKS
NORFOLK        CLOUDY    24  21  88 N17G31    29.80R FOG     WCI  11
SO SIOUX CITY  CLOUDY    27  23  85 N28G40    29.78R FOG     WCI  11
TEKAMAH        LGT SNOW  27  25  92 N36       29.74R FOG     WCI  10
COLUMBUS       CLOUDY    27  19  74 N25G33    29.75R VSB 1   WCI  11
ALBION         LGT SNOW  24  20  83 N21G30    29.81R WCI  10
OMAHA EPPLEY   FLURRIES  31  27  85 N18       29.68R WCI  19
OFFUTT AFB     LGT SNOW  32  28  86 N13G23    29.66R FOG     WCI  22
MILLARD        CLOUDY    33  30  90 NW9G18    29.69R WCI  25
LINCOLN        FRZ RAIN  30  28  92 N24G36    29.70S FOG     WCI  16
NEBRASKA CITY  MIX PCPN  32  32 100 N17G23    29.63R WCI  21
BEATRICE       MIX PCPN  32  32 100 N21       29.66R WCI  20
FALLS CITY     CLOUDY    36  33  89 NW10      29.61R WCI  28

...NORTHERN KANSAS...

CITY           SKY/WX    TMP DP  RH WIND       PRES   REMARKS
GOODLAND       CLOUDY    21  18  88 N20       29.83R WCI   6
HILL CITY      CLOUDY    26  23  88 NW12      29.83R WCI  16
NORTON         LGT SNOW  25  19  80 NW15      29.81R WCI  12
PHILLIPSBURG   FLURRIES  28  25  86 NW13G18   29.82R WCI  18
SMITH CENTER   LGT SNOW  27  25  93 NW15      29.79R WCI  15
HAYS           CLOUDY    28  24  85 NW18      29.80R WCI  15
RUSSELL        CLOUDY    29  25  85 NW17      29.77R WCI  17
CONCORDIA      CLOUDY    30  29  96 NW16      29.72R WCI  19
SALINA         CLOUDY    35  28  75 NW16G30   29.74R WCI  25
TOPEKA         CLOUDY    37  34  89 NW17G25   29.64R WCI  27



USA.gov is the U.S. government's official web portal to all federal, state and local government web resources and services.